Regional Weather Roundup
Issued by NWS Upton, NY

Current Version | Previous Version | Graphics & Text | Print | Product List | Glossary Off
Versions: 1 2 3 4 5 6 7 8 9 10 11 12 13 14 15 16 17 18 19 20 21 22 23 24 25 26 27 28 29 30 31 32 33 34 35 36 37 38 39 40 41 42 43 44 45 46 47 48 49 50

000
ASUS41 KOKX 260207
RWROKX

REGIONAL WEATHER ROUNDUP
NATIONAL WEATHER SERVICE NEW YORK NY
1000 PM EDT SAT APR 25 2015

NOTE: "FAIR" INDICATES FEW OR NO CLOUDS BELOW 12,000 FEET WITH NO
SIGNIFICANT WEATHER AND/OR OBSTRUCTIONS TO VISIBILITY.

NYZ071-072-176-178-NJZ106-104-260300-
NEW YORK CITY METRO AREA


CITY           SKY/WX    TMP DP  RH WIND       PRES   REMARKS
CENTRAL PARK   PTCLDY    51  34  52 CALM      29.72F
LAGUARDIA APRT MOCLDY    51  34  52 SE3       29.70S
KENNEDY INTL   MOCLDY    47  38  71 SE5       29.71F
NEWARK/LIBERTY MOCLDY    54  33  45 CALM      29.70S
BRNX BOT. GARD   N/A     46  32  57 N2        29.72R
TETERBORO      PTCLDY    54  23  30 CALM      29.69S
$$

NYZ177-179-078>081-260300-
LONG ISLAND NEW YORK

CITY           SKY/WX    TMP DP  RH WIND       PRES   REMARKS
FARMINGDALE    PTCLDY    45  36  70 CALM      29.71F
ISLIP          MOCLDY    43  34  70 NE3       29.70F
SHIRLEY        CLEAR     40  33  76 CALM      29.73S
WESTHAMPTON    CLEAR     36  30  79 CALM      29.73F
MONTAUK POINT    N/A     47  36  65 W8        29.72F
$$

NYZ052-065-067-260300-
HUDSON VALLEY

CITY           SKY/WX    TMP DP  RH WIND       PRES   REMARKS
WHITE PLAINS   CLEAR     47  30  51 NE5       29.70S
NEWBURGH       PTCLDY    48  28  46 VRB6      29.73F
MONTGOMERY     CLEAR     44  29  55 N5        29.72S
POUGHKEEPSIE   CLEAR     45  28  51 CALM      29.72S
ALBANY         PTCLDY    45  28  51 NW6       29.75R
$$

NJZ001-105-106-008-010-013-015-019>022-104-260300-
NEW JERSEY

CITY           SKY/WX    TMP DP  RH WIND       PRES   REMARKS
NEWARK/LIBERTY MOCLDY    54  33  45 CALM      29.70S
TETERBORO      PTCLDY    54  23  30 CALM      29.69S
CALDWELL       PTCLDY    50  26  39 CALM      29.71S
MORRISTOWN     PTCLDY   N/A N/A N/A CALM      29.71S
SOMERVILLE     CLOUDY    44  31  60 CALM      29.69R
SUSSEX         CLEAR     39  29  67 E3        29.73R
ANDOVER          N/A     44  30  57 CALM      29.71S
TRENTON        CLOUDY    49  27  42 SW6       29.70S
MILLVILLE      CLOUDY    47  35  63 CALM      29.72F
ATLANTIC CITY  CLOUDY    48  32  53 S5        29.73F
WRIGHTSTOWN    CLOUDY    47  27  44 SW6       29.69F
TOMS RIVER     CLOUDY    46  28  49 S5        29.72R
BELMAR         CLOUDY    50  25  37 SW7       29.70S
$$

PAZ047>061-062-071-260300-
EASTERN PENNSYLVANIA

CITY           SKY/WX    TMP DP  RH WIND       PRES   REMARKS
PHILADELPHIA   CLOUDY    51  29  42 SW9       29.72F
ALLENTOWN      CLOUDY    51  25  36 N3        29.70F
SCRANTON       CLEAR     47  26  44 NE6       29.73R
$$

CTZ002-004>006-009-010-012-RIZ004-006-007-MAZ004-011-015-260300-
SOUTHERN NEW ENGLAND
 IN CT

CITY           SKY/WX    TMP DP  RH WIND       PRES   REMARKS
BRADLEY INTL   MOCLDY    49  27  42 NW5       29.71S
HARTFORD       PTCLDY    51  26  37 VRB6      29.72S
DANBURY        CLEAR     47  25  42 CALM      29.73S
WTRBRY/OXFORD  CLEAR     43  25  49 N8        29.73S
BRIDGEPORT     CLEAR     47  37  68 CALM      29.72F
MERIDEN        CLEAR     45  30  55 CALM      29.72S
NEW HAVEN      CLEAR     48  34  58 CALM      29.72S
CHESTER        FAIR      48  27  43 N5        29.72S
GROTON         CLOUDY    47  35  63 SW8       29.71S
WILLIMANTIC    CLOUDY    45  32  60 CALM      29.72R

 IN RI

CITY           SKY/WX    TMP DP  RH WIND       PRES   REMARKS
PROVIDENCE     CLOUDY    50  30  46 NE8       29.72R
BLOCK ISLAND   CLOUDY    45  36  70 W10       29.71S
WESTERLY       CLOUDY    47  37  68 SW8       29.71F

 IN MA

CITY           SKY/WX    TMP DP  RH WIND       PRES   REMARKS
BOSTON         MOCLDY    47  27  45 N10       29.73S
WORCESTER      CLOUDY    46  26  45 NE7       29.71S
WESTFIELD      CLOUDY    49  27  42 N6        29.72S
PROVINCETOWN   PTCLDY   N/A N/A N/A SW5       29.72S
NANTUCKET      CLOUDY    44  35  70 W7        29.72F
$$

ANZ330-335-338-340-345-350-353-355-260300-
COASTAL MARINE OBSERVATIONS


STATION/POSITION TIME  SKY/WX   TEMP    WIND        PRES    VSBY  WAVE
                                AIR SEA DIR/SP/G                  HT/PER
                 (UTC)          (F)     (DEG/KT/KT) (MB)    (MI)  (FT/S)
NY HARB ENTRANCE 0150            46 45  190/  8/ 10 1005.6          2/ 4
4S FIRE IS       0103               44                N/A           2/ 4
20S FIRE ISLAND  0150            45 43  210/ 12/ 14 1006.2          2/ 4
23SW MTP         NOT AVBL
HUDSON CANYON    NOT AVBL
EXECUTION ROCKS  NOT AVBL
WESTERN LI SOUND NOT AVBL
CENTRAL LI SOUND NOT AVBL
EASTERN LI SOUND 0100            46     240/ 10/ 16   N/A
ROBBINS REEF     0100            55     130/  4/  5 1004.5
$$


>>>>>>>>>>>>>>>>>>>>>>>>>>>> KEY <<<<<<<<<<<<<<<<<<<<<<<<<<<
>                                                          <
>     SKY/WX - SKY CONDITION/PRESENT WEATHER               <
>     TMP    - TEMPERATURE IN FAHRENHEIT                   <
>     DP     - DEWPOINT IN FAHRENHEIT                      <
>     RH     - RELATIVE HUMIDITY IN PERCENT                <
>     WIND   - DIRECTION AND SPEED IN MPH                  <
>     PRES   - MEAN SEA LEVEL PRESSURE IN INCHES OF HG     <
>     WCI    - WIND CHILL INDEX                            <
>     VSB    - VISIBILITY IN MILES                         <
>     HX     - HEAT INDEX                                  <
>     TC     - TEMPERATURE IN CELSIUS                      <
>     VRB    - VARIABLE WIND DIRECTION                     <
>                                                          <
>>>>>>>>>>>>>>>>>>>>>>>>>>>> KEY <<<<<<<<<<<<<<<<<<<<<<<<<<<




USA.gov is the U.S. government's official web portal to all federal, state and local government web resources and services.